www.pogodaiklimat.ru

Погода и климат >> Архив погоды >> Австралия >> Новый Южный Уэльс >> Уафт Клифс


ПОГОДА в Уафт Клифс

  • Прогноз погоды в Уафт Клифс
  • Монитор погоды в Уафт Клифс

АРХИВ ПОГОДЫ в Уафт Клифс

Время (UTC), дата Ветер
(напр.,м/с)
 
Видим.   Явления Облачность Т
(С)
Тd
(С)
f
(%)
Тe
(С)
Тes
(С)
Комфортность P
(гПа)
Po
(гПа)
Тmin
(С)
Tmax
(С)
R
(мм)
R24
(мм)
S
(см)
04 14.09 ЮВ 5 н/о н/о +24.6 +2.1 23 +24 +24 комфорт 1024.4 1005.6
05 14.09 ЮВ 4 н/о н/о +25.5 +2.2 22 +24 +24 комфорт 1023.6 1004.8
07 14.09 ЮВ 3 н/о н/о +25.8 +1.8 21 +24 +24 комфорт 1023.4 1004.6
08 14.09 ЮВ 4 н/о н/о +25.1 +1.3 21 +24 +24 комфорт 1023.8 1005.0
10 14.09 ЮВ 3 н/о н/о +21.1 -0.2 24 +21 +21 комфорт 1023.9 1005.1
11 14.09 ЮВ 3 н/о н/о +19.6 -0.4 26 +20 +20 1024.3 1005.5
13 14.09 ЮВ 3 н/о н/о +18.6 -0.7 27 +19 +19 1023.8 1005.0
14 14.09 Ю 5 н/о н/о +17.5 -1.2 28 +17 +17 1023.7 1004.9 +26.9
16 14.09 Ю 1 н/о н/о +13.5 -2.0 34 +14 +14 1023.6 1004.8
17 14.09 В 2 н/о н/о +13.6 -1.9 34 +14 +14 1022.8 1004.0
19 14.09 штиль 0 н/о н/о +13.2 -1.5 36 +13 +13 1022.8 1004.0
20 14.09 В 5 н/о н/о +12.7 -2.0 36 +11 +11 1022.7 1003.9
22 14.09 ЮЗ 2 н/о н/о +16.1 -1.9 29 +17 +17 1024.2 1005.4
23 14.09 СВ 3 н/о н/о +21.3 -4.0 18 +20 +20 1023.8 1005.0
01 15.09 СВ 6 н/о н/о +26.1 -5.5 12 +23 +23 комфорт 1022.4 1003.6
02 15.09 С 6 н/о н/о +27.8 -6.6 10 +25 +25 комфорт 1021.5 1002.7 +11.3
04 15.09 С 6 н/о н/о +30.0 -9.5 7 +26 +26 жарко 1019.3 1000.6
05 15.09 С 6 н/о н/о +30.1 -9.4 7 +26 +26 жарко 1018.8 1000.1
07 15.09 СЗ 5 н/о н/о +30.1 -9.4 7 +26 +26 жарко 1018.6 999.9
08 15.09 СЗ 5 н/о н/о +28.6 -10.5 7 +25 +25 комфорт 1018.8 1000.1
10 15.09 С 5 н/о н/о +22.6 -11.8 9 +20 +20 1019.2 1000.5
11 15.09 С 4 н/о н/о +21.4 -11.4 10 +20 +20 1019.2 1000.5
13 15.09 С 4 н/о н/о +20.8 -10.7 11 +20 +20 1018.9 1000.2
14 15.09 С 4 н/о н/о +18.5 -10.4 13 +18 +18 1018.6 999.9 +31.1
16 15.09 СЗ 4 н/о н/о +14.6 -11.7 15 +14 +14 1017.6 998.9
17 15.09 С 4 н/о н/о +14.4 -11.1 16 +14 +14 1016.8 998.1
19 15.09 С 5 н/о н/о +15.3 -9.6 17 +14 +14 1015.7 997.1
20 15.09 С 4 н/о н/о +11.3 -12.1 18 +10 +10 1016.4 997.7
22 15.09 СЗ 4 н/о н/о +17.0 -9.8 15 +17 +17 1017.1 998.4
23 15.09 СЗ 5 н/о н/о +21.5 -9.1 12 +20 +20 1017.3 998.6
01 16.09 СЗ 7 н/о н/о +28.5 -8.9 8 +25 +25 комфорт 1016.7 998.0
02 16.09 СЗ 8 н/о н/о +30.6 -9.1 7 +27 +27 жарко 1016.1 997.4 +11.3
04 16.09 З 8 н/о н/о +32.7 -9.5 6 +28 +28 жарко 1014.2 995.6
05 16.09 ЮЗ 9 н/о н/о +30.2 -2.3 12 +27 +27 жарко 1013.8 995.2
07 16.09 Ю 10 н/о н/о +25.9 +4.4 25 +25 +25 комфорт 1014.4 995.8
08 16.09 Ю 9 н/о н/о +23.6 +6.4 33 +24 +24 комфорт 1015.5 996.9
10 16.09 Ю 14 н/о н/о +18.9 +4.3 38 +18 +18 1017.5 998.8
11 16.09 Ю 12 н/о н/о +17.6 +4.6 42 +16 +16 1017.9 999.2
13 16.09 Ю 11 н/о н/о +14.7 +5.8 55 +12 +12 1019.3 1000.6
14 16.09 Ю 11 н/о н/о +12.1 +5.0 62 +9 +9 1019.3 1000.6 +33.8
16 16.09 Ю 11 н/о н/о +10.0 +5.0 71 +5 +5 1020.1 1001.4
17 16.09 Ю 11 н/о н/о +9.9 +4.9 71 +5 +5 1020.4 1001.7
19 16.09 Ю 8 н/о н/о +8.6 +3.2 69 +4 +4 1021.3 1002.6
20 16.09 Ю 8 н/о н/о +7.7 +2.4 69 +3 +3 1022.2 1003.4
22 16.09 Ю 9 н/о н/о +8.4 -0.6 53 +4 +4 1024.1 1005.3
23 16.09 Ю 9 н/о н/о +10.3 -4.1 36 +7 +7 1024.4 1005.6
01 17.09 Ю 10 н/о н/о +13.1 -7.0 24 +10 +10 1023.9 1005.1
02 17.09 Ю 9 н/о н/о +14.7 -6.8 22 +13 +13 1023.6 1004.8 +7.4
04 17.09 Ю 9 н/о н/о +16.5 -7.9 18 +15 +15 1022.1 1003.3
05 17.09 Ю 9 н/о н/о +16.2 -6.8 20 +15 +15 1021.9 1003.1
07 17.09 Ю 7 н/о н/о +17.0 -6.1 20 +16 +16 1022.6 1003.8
08 17.09 Ю 8 н/о н/о +15.8 -5.3 23 +14 +14 1023.0 1004.2
10 17.09 Ю 5 н/о н/о +13.7 -2.7 32 +12 +12 1024.5 1005.7
11 17.09 Ю 4 н/о н/о +12.7 -2.7 34 +11 +11 1025.2 1006.4
13 17.09 Ю 5 н/о н/о +10.7 -2.3 40 +9 +9 1025.2 1006.4
14 17.09 Ю 5 н/о н/о +11.1 -0.1 46 +9 +9 1025.1 1006.3 +17.9
16 17.09 Ю 6 н/о н/о +9.7 +0.6 53 +7 +7 1024.2 1005.4
17 17.09 Ю 5 н/о н/о +8.9 +0.4 55 +6 +6 1024.1 1005.3
19 17.09 Ю 4 н/о н/о +7.8 +0.5 60 +5 +5 1024.0 1005.2
20 17.09 Ю 4 н/о н/о +6.7 -0.5 60 +3 +3 1024.5 1005.7
22 17.09 ЮВ 4 н/о н/о +11.5 +2.8 55 +10 +10 1025.1 1006.3
23 17.09 В 6 н/о н/о +14.3 +4.9 53 +13 +13 1025.8 1007.0
01 18.09 В 4 н/о н/о +17.4 +5.0 44 +17 +17 1025.1 1006.3
02 18.09 В 5 н/о н/о +18.3 +4.5 40 +18 +18 1024.3 1005.5 +6.6
04 18.09 СВ 4 н/о н/о +20.7 +2.5 30 +21 +21 комфорт 1022.3 1003.5
05 18.09 В 2 н/о н/о +21.7 +2.9 29 +22 +22 комфорт 1021.5 1002.7
07 18.09 ЮВ 2 н/о н/о +21.9 +1.6 26 +22 +22 комфорт 1021.7 1002.9
08 18.09 ЮВ 2 н/о н/о +21.2 +1.0 26 +21 +21 комфорт 1021.7 1002.9
10 18.09 Ю 3 н/о н/о +18.3 +0.9 31 +19 +19 1022.2 1003.4
11 18.09 Ю 3 н/о н/о +17.7 +0.8 32 +18 +18 1022.5 1003.7
13 18.09 ЮВ 2 н/о н/о +16.1 +0.7 35 +16 +16 1022.3 1003.5
14 18.09 В 3 н/о н/о +14.5 +0.4 38 +14 +14 1021.8 1003.0 +23.0
16 18.09 В 2 н/о н/о +12.8 -0.1 41 +12 +12 1021.1 1002.4
17 18.09 В 3 н/о н/о +13.0 +0.7 43 +12 +12 1020.3 1001.6
19 18.09 В 3 н/о н/о +13.3 +1.9 46 +13 +13 1020.2 1001.5
20 18.09 В 2 н/о н/о +13.5 +2.4 47 +13 +13 1020.9 1002.2
22 18.09 В 3 н/о н/о +17.1 +3.4 40 +17 +17 1021.9 1003.1
23 18.09 В 4 н/о н/о +19.7 +3.8 35 +20 +20 1021.6 1002.8
01 19.09 СВ 8 н/о н/о +23.9 +4.3 28 +24 +24 комфорт 1020.3 1001.6
02 19.09 С 5 н/о н/о +24.8 +4.0 26 +24 +24 комфорт 1019.6 1000.9 +12.0
04 19.09 С 5 н/о н/о +27.3 +1.7 19 +25 +25 комфорт 1017.4 998.7
05 19.09 С 5 н/о н/о +27.7 -0.4 16 +25 +25 комфорт 1016.8 998.1
07 19.09 С 5 н/о н/о +27.6 -0.5 16 +25 +25 комфорт 1016.1 997.4
08 19.09 СВ 4 н/о н/о +26.8 -0.3 17 +25 +25 комфорт 1016.3 997.6
10 19.09 В 4 н/о н/о +21.8 +0.4 24 +21 +21 комфорт 1016.7 998.0
11 19.09 В 4 н/о н/о +20.9 +0.7 26 +21 +21 комфорт 1017.2 998.5
13 19.09 СВ 5 н/о н/о +19.3 +0.8 29 +19 +19 1017.1 998.4
14 19.09 СВ 5 н/о н/о +21.0 +1.8 28 +21 +21 комфорт 1017.1 998.4 +28.8
16 19.09 СВ 6 н/о н/о +20.4 +2.3 30 +20 +20 1016.4 997.7
17 19.09 СВ 5 н/о н/о +19.1 +1.6 31 +19 +19 1015.7 997.1
19 19.09 СВ 6 н/о н/о +19.8 +3.1 33 +20 +20 1015.4 996.8
20 19.09 СВ 7 н/о н/о +19.7 +3.0 33 +20 +20 1015.9 997.3
22 19.09 СВ 9 н/о н/о +22.7 +1.7 25 +22 +22 комфорт 1016.3 997.6
23 19.09 СВ 10 н/о н/о +25.4 +1.5 21 +24 +24 комфорт 1015.8 997.2
01 20.09 СВ 10 н/о н/о +29.5 -1.8 13 +26 +26 жарко 1014.3 995.7
02 20.09 С 9 н/о н/о +30.1 -3.6 11 +27 +27 жарко 1013.2 994.6 +18.7
04 20.09 С 8 н/о н/о +31.1 -7.0 8 +27 +27 жарко 1011.0 992.4
05 20.09 С 10 н/о н/о +31.7 -8.3 7 +28 +28 жарко 1010.0 991.5
07 20.09 С 8 н/о н/о +31.1 -8.7 7 +27 +27 жарко 1009.5 991.0
08 20.09 С 6 н/о н/о +30.1 -11.4 6 +26 +26 жарко 1009.8 991.3
10 20.09 С 5 н/о н/о +26.1 -12.3 7 +23 +23 комфорт 1010.3 991.8
11 20.09 С 5 н/о н/о +26.1 -10.7 8 +23 +23 комфорт 1010.4 991.9
13 20.09 С 6 н/о н/о +24.3 -10.6 9 +22 +22 комфорт 1009.4 990.9
14 20.09 С 7 н/о н/о +25.1 -6.3 12 +23 +23 комфорт 1008.4 989.9 +32.6
16 20.09 С 10 н/о н/о +25.4 +2.2 22 +24 +24 комфорт 1008.3 989.8
17 20.09 ЮЗ 11 н/о н/о +19.4 +6.5 43 +19 +19 1010.1 991.6
19 20.09 ЮЗ 7 н/о н/о +17.7 +6.6 48 +17 +17 1013.5 994.9
22 20.09 С 2 н/о н/о +16.7 +8.7 59 +17 +17 1016.1 997.4
23 20.09 СЗ 8 н/о н/о +16.8 +10.6 67 +16 +16 1017.5 998.8
02 21.09 З 7 н/о н/о +19.0 +6.8 45 +19 +19 1018.0 999.3 +16.7

 

Местоположение метеостанции Уафт Клифс (Новый Южный Уэльс, Австралия): широта -30.85 долгота 143.07 высота над уровнем моря 158 м.

В архиве по умолчанию представлена погода в Уафт Клифс за последнюю неделю. Архивные данные за месяц целиком и за предыдущие месяцы, начиная с января 2011 года, Вы можете получить, выбрав интересующий диапазон дат из раскрывающегося списка и нажав кнопку "Ввод!".


*Определитесь, кто Вы:
робот инопланетянин человек

Внимание! Время в таблицах - всемирное. Для получения местного времени необходимо прибавить поправку, которая равна 10 ч.

Смотрите также архив погоды в соседних городах и на ближайших метеорологических станциях:

Погода в Уилкании (Новый Южный Уэльс, Австралия) (80 км)
Погода в Фоулерс Гэп (Новый Южный Уэльс, Австралия) (133 км)
Погода в Тибообере (Новый Южный Уэльс, Австралия) (184 км)
Погода в Брокен-Хилл аэропорту (Новый Южный Уэльс, Австралия) (199 км)
Погода в Айванхо (Новый Южный Уэльс, Австралия) (255 км)
Погода в Кобар аэропорту (Новый Южный Уэльс, Австралия) (271 км)
Погода в Кобаре (Новый Южный Уэльс, Австралия) (272 км)
Погода в Бурке (Новый Южный Уэльс, Австралия) (291 км)
Погода в Таргоминде (Квинсленд, Австралия) (327 км)
Погода в Юнте (Южная Австралия, Австралия) (382 км)

Пояснения к столбцам:

Ветер - указаны скорость ветра в м/с - средняя за 10 мин, порывы в срок и между сроками (в фигурных скобках) и направление, откуда дует ветер: С - северный, СВ - северо-восточный, В - восточный, ЮВ - юго-восточный, Ю - южный, ЮЗ - юго-западный, З - западный, СЗ - северо-западный.
Видимость - горизонтальная дальность видимости в метрах или километрах. При видимости от 1 до 10 км при отсутствии осадков обычно наблюдается дымка, при ухудшении видимости до 1 км и менее - туман. В сухую погоду видимость может ухудшаться дымом, пылью или мглою.
Явления - указаны атмосферные явления, наблюдавшиеся в срок или в последний час перед сроком; фигурными скобками обозначены явления, наблюдавшиеся между сроками (за 1-3 часа до срока); квадратными скобками обозначены град или гололедные отложения с указанием их диаметра в мм.
Облачность - указаны через наклонную черту общая и нижняя облачность в баллах и высота нижней границы облаков в метрах; квадратными скобками обозначены формы облаков: Ci - перистые, Cs - перисто-слоистые, Cc - перисто-кучевые, Ac - высококучевые, As - высокослоистые, Sc - слоисто-кучевые, Ns - слоисто-дождевые, Cu - кучевые, Cb - кучево-дождевые. Подробнее классификацию облаков см. в Атласе облаков (PDF).
T - Температура воздуха - температура, измеренная на высоте 2 м над землей.
Td - Температура точки росы - температура, при понижении до которой содержащийся в воздухе водяной пар достигнет насыщения.
f - Относительная влажность воздуха - влажноcть воздуха, измеренная на высоте 2 м над землей.
Te - Эффективная температура - температура, которую ощущает одетый по сезону человек в тени. Характеристика душности погоды. При расчете учитывается влияние влажности воздуха и скорости ветра на теплоощущения человека.
Tes - Эффективная температура на солнце - температура, которую ощущает человек, с поправкой на солнечный нагрев. Характеристика знойности погоды. Зависит от высоты солнца над горизонтом, облачности и скорости ветра. Ночью, в пасмурную погоду, а также при ветре 12 м/с и более поправка равна нулю.
P - Атмосферное давление - приведенное к уровню моря атмосферное давление.
Po - Атмосферное давление - измеренное на уровне метеостанции атмосферное давление.
Tmin - Минимальная температура - минимум температуры воздуха на высоте 2 м над землей.
Tmax - Максимальная температура - максимум температуры воздуха на высоте 2 м над землей.
R - Количество осадков - Количество выпавших осадков за период времени, мм. При наведении курсора мыши на число - период времени, за который выпало указанное количество осадков.
R24 - Количество осадков - Количество выпавших осадков за 24 часа, мм.
S - Снежный покров - Высота снежного покрова, см. При наведении курсора мыши на число - состояние снежного покрова и степень покрытия местности в баллах.